Starlink 30451

operational
NORAD ID: 57905 Int'l Des: 2023-146 Owner: SPXS Country: US Constellation: starlink
LEOCIRCULAR

About Starlink 30451

Description loading...

Live Position

Loading 3D Globe...

Upcoming Passes

Altitude History

Altitude vs Time

uPlot chart will show altitude changes over time

Two-Line Element Set

1 57905U 23146Q 25350.19945411 .00001701 00000-0 14094-3 0 9991
2 57905 43.0045 46.4450 0001309 278.3525 81.7169 15.02534028123459
Epoch: Dec 16, 2025 • Age: 22 hours

Current Status

Altitude 558.9 km
Velocity 7.59 km/s
Sub-Earth Point 21.98°N, 68.22°W
Launch Date Sep 20, 2023
Age 2.2 years
Type internet

Technical Details

Classification Payload
Mass 730.00 kg
Dry Mass 700.00 kg
Total Mass 730.00 kg
Length 0.30 m
Diameter 4.10 m
Span 29.00 m
Shape Box + pan
Manufacturer SPXS
Bus Type Starlink V2M
Phase Status In Orbit
Owner/State SPXS/US

Large Constellations

Loading constellations...